Location: Cottbus
(51.7000°N, 14.3000°E)
Time: 17:06:47
(UTC+01:00)

ISS - Visible Passes

Search period start: 27 January 2021 00:00
Search period end: 06 February 2021 00:00
Orbit: 418 x 421 km, 51.6° (Epoch: 28 January)

Date Brightness Start Highest point End Pass type
(mag) Time Alt. Az. Time Alt. Az. Time Alt. Az.
27 Jan -3.8 18:00:51 10° W 18:04:15 85° S 18:06:14 23° E visible
27 Jan -1.4 19:37:41 10° W 19:39:13 24° W 19:39:13 24° W visible
28 Jan -3.9 18:50:21 10° W 18:53:45 87° S 18:53:50 84° SE visible
29 Jan -3.8 18:03:00 10° W 18:06:24 89° N 18:08:28 22° E visible
29 Jan -1.4 19:39:50 10° W 19:41:27 25° W 19:41:27 25° W visible
30 Jan -3.6 18:52:28 10° W 18:55:50 64° SSW 18:56:07 60° SSE visible
31 Jan -3.7 18:05:06 10° W 18:08:30 77° S 18:10:51 18° ESE visible
31 Jan -1.3 19:42:05 10° W 19:43:49 22° WSW 19:43:49 22° WSW visible
01 Feb -2.6 18:54:35 10° W 18:57:46 37° SSW 18:58:37 31° S visible
02 Feb -3.0 18:07:10 10° W 18:10:27 50° SSW 18:13:31 12° SE visible
02 Feb -0.9 19:44:52 10° WSW 19:46:30 14° SW 19:46:30 14° SW visible
03 Feb -1.3 18:56:58 10° W 18:59:30 20° SW 19:01:32 13° S visible
04 Feb -1.7 18:09:20 10° W 18:12:15 27° SSW 18:15:11 10° SSE visible
